Weather observations for the past three days for
Harlingen, Rio Grande Valley International Airport
Imperial (Metric)
Date Time (cdt) Wind (mph) Vis. (mi.) Weather Sky Cond. Temperature (ºF) Relative Humidity Wind Chill (°F) Heat Index (°F) Pressure Precipitation (in)
Air Dwpt 6 hour altimeter (in) sea level (mb) 1 hr 3 hr 6 hr
Max. Min.
15 21:52 SE 8 10.00 Fair CLR 82 73 74% 87 29.82 1009.7
15 20:52 E 14 10.00 Fair CLR 84 73.9 72% 91 29.8 1009.2
15 19:52 E 17 G 24 10.00 Fair CLR 87.1 71.1 59% 93 29.79 1008.9
15 18:52 E 16 10.00 Fair CLR 90 73 99 90 58% 98 29.79 1008.6
15 17:52 E 17 G 26 10.00 Fair CLR 91.9 73 54% 101 29.79 1008.7
15 16:52 E 15 G 28 10.00 Fair CLR 95 73 49% 105 29.8 1008.9
15 15:52 E 15 G 26 10.00 Fair CLR 97 72 45% 106 29.81 1009.4
15 14:52 E 12 G 25 10.00 A Few Clouds FEW048 96.1 72 46% 105 29.83 1009.9
15 13:52 E 16 G 22 10.00 A Few Clouds FEW050 98.1 72 43% 107 29.84 1010.4
15 12:52 SE 13 G 20 10.00 Partly Cloudy SCT047 SCT060 95 73 96.1 75.9 49% 105 29.85 1010.8
15 11:52 E 13 G 20 10.00 Mostly Cloudy BKN030 95 73 49% 105 29.86 1011.1
15 10:52 SE 9 G 18 10.00 Fair CLR 91.9 73 54% 101 29.87 1011.4
15 09:52 SE 9 10.00 Fair CLR 89.1 73.9 61% 98 29.88 1011.8
15 08:52 SE 9 10.00 Fair CLR 86 77 75% 97 29.88 1011.9
15 07:52 N 3 10.00 Fair CLR 81 75.9 85% 87 29.88 1011.6
15 06:52 Calm 10.00 Fair CLR 75.9 73.9 80.1 75 94% 75 29.86 1011.1
15 05:52 Calm 10.00 Fair CLR 77 75 94% 78 29.87 1011.3
15 04:52 Calm 10.00 A Few Clouds FEW024 77 73.9 90% 78 29.87 1011.4
15 03:52 Calm 10.00 Fair CLR 78.1 75 90% 81 29.87 1011.3
15 02:52 S 3 10.00 Fair CLR 79 75.9 90% 83 29.87 1011.5
15 01:52 SE 5 10.00 Fair CLR 78.1 75 90% 81 29.88 1011.7
15 00:52 SE 5 10.00 Fair CLR 79 75 90 79 88% 83 29.89 1012.0
14 23:52 SE 6 10.00 Fair CLR 79 73.9 85% 83 29.89 1012.0
14 22:52 E 8 10.00 Fair CLR 81 75 82% 87 29.88 1011.7
14 21:52 E 7 10.00 Fair CLR 82 75 79% 89 29.86 1011.2
14 20:52 E 10 10.00 Fair CLR 84 73.9 72% 91 29.85 1010.7
14 19:52 E 14 10.00 Fair CLR 87.1 72 61% 94 29.83 1010.2
14 18:52 E 21 10.00 Fair and Breezy CLR 90 73 99 90 58% 98 29.83 1010.0
14 17:52 E 18 G 28 10.00 Fair CLR 93 73.9 54% 103 29.82 1009.8
14 16:52 E 18 G 31 10.00 Fair CLR 95 73 49% 105 29.82 1009.8
14 15:52 E 13 G 25 10.00 Fair CLR 97 70 42% 104 29.84 1010.3
14 14:52 E 14 G 24 10.00 A Few Clouds FEW055 97 71.1 43% 105 29.85 1010.6
14 13:52 E 10 G 24 10.00 A Few Clouds FEW050 98.1 73 45% 108 29.86 1010.9
14 12:52 Vrbl 3 10.00 A Few Clouds FEW048 93.9 73 96.1 75 51% 103 29.87 1011.5
14 11:52 Vrbl 7 10.00 A Few Clouds FEW047 95 73.9 51% 106 29.89 1012.0
14 10:52 Calm 10.00 Fair CLR 90 73 58% 98 29.9 1012.5
14 09:52 Calm 10.00 Partly Cloudy SCT033 89.1 73.9 61% 98 29.91 1012.7
14 08:52 Vrbl 3 10.00 Fair CLR 84.9 75.9 75% 94 29.91 1012.7
14 07:52 Calm 10.00 Fair CLR 82 77 85% 90 29.9 1012.4
14 06:52 NE 3 10.00 A Few Clouds FEW024 75 73.9 78.1 75 96% 73 29.89 1012.0
14 05:52 Calm 10.00 Fair CLR 75 73.9 96% 73 29.87 1011.5
14 04:52 Calm 10.00 Fair CLR 75.9 75 97% 75 29.86 1011.2
14 03:52 SE 6 10.00 Fair CLR 75.9 75 97% 75 29.87 1011.3
14 02:52 SE 5 10.00 Fair CLR 78.1 75 90% 81 29.87 1011.4
14 01:52 SE 6 10.00 Fair CLR 78.1 75.9 93% 81 29.87 1011.6
14 00:52 S 6 10.00 Fair CLR 78.1 75.9 91 78.1 93% 81 29.89 1012.1
13 23:52 SE 5 10.00 Fair CLR 80.1 75 85% 85 29.9 1012.3
13 22:52 SE 5 10.00 Fair CLR 81 75 82% 87 29.88 1011.8
13 21:52 E 7 10.00 Fair CLR 82.9 75.9 79% 91 29.86 1011.1
13 20:52 E 14 10.00 Fair CLR 84.9 75 72% 93 29.85 1010.8
13 19:52 E 15 10.00 Fair CLR 88 75 66% 98 29.84 1010.5
13 18:52 E 17 10.00 Fair CLR 91 72 100 91 54% 99 29.83 1009.9
13 17:52 E 17 G 24 10.00 Fair CLR 93.9 71.1 48% 101 29.82 1009.9
13 16:52 E 15 G 26 10.00 Fair CLR 97 72 45% 106 29.82 1009.8
13 15:52 E 9 G 21 10.00 Fair CLR 97 73 46% 107 29.83 1010.1
13 14:52 E 15 G 24 10.00 Partly Cloudy SCT050 98.1 75 48% 111 29.84 1010.5
13 13:52 Calm 10.00 Fair CLR 98.1 70 40% 105 29.85 1010.9
13 12:52 Calm 10.00 Fair CLR 97 72 97 75 45% 106 29.88 1011.6
13 11:52 S 7 10.00 Fair CLR 91.9 73 54% 101 29.89 1012.1
13 10:52 S 5 10.00 A Few Clouds FEW037 89.1 73.9 61% 98 29.9 1012.4
13 09:52 SE 8 10.00 A Few Clouds FEW027 88 75 66% 98 29.9 1012.4
13 08:52 SE 10 10.00 A Few Clouds FEW022 FEW028 86 77 75% 97 29.9 1012.5
13 07:52 E 5 10.00 A Few Clouds FEW100 81 77 88% 88 29.89 1012.0
13 06:52 SE 3 10.00 Fair CLR 75 73.9 79 75 96% 73 29.87 1011.3
13 05:52 S 5 10.00 Fair CLR 77 75 94% 78 29.85 1010.6
13 04:52 S 5 10.00 Fair CLR 77 75 94% 78 29.85 1010.7
13 03:52 S 6 10.00 Fair CLR 77 75 94% 78 29.84 1010.4
13 02:52 S 6 10.00 Fair CLR 78.1 75.9 93% 81 29.85 1010.8
13 01:52 SE 5 10.00 Fair CLR 79 75.9 90% 83 29.87 1011.4
13 00:52 S 5 10.00 Fair CLR 79 75.9 91.9 79 90% 83 29.88 1011.8
12 23:52 SE 7 10.00 Fair CLR 80.1 75.9 87% 85 29.88 1011.9
12 22:52 SE 8 10.00 Fair CLR 82 77 85% 90 29.87 1011.6
Date Time (cdt) Wind (mph) Vis. (mi.) Weather Sky Cond. Air Dwpt Max. Min. Relative Humidity Wind Chill (°F) Heat Index (°F) altimeter (in) sea level (mb) 1 hr 3 hr 6 hr
6 hour
Temperature (ºF) Pressure Precipitation (in)